Find Starlink 35148

NORAD ID: 65844 Int'l Des: 2025-221 Owner: SPXS Country: US Constellation: starlink operational
LEOCIRCULAR

Live Position

Loading 3D Globe...

About Starlink 35148

Description loading...

Upcoming Passes

Passes for default location (London). Set your location on the main map for personalized predictions.

Altitude History

Loading altitude history...

Two-Line Element Set

1 65844U 25221X 26104.89147131 .00009849 00000-0 34418-3 0 9999
2 65844 53.1612 280.3576 0000949 81.7803 278.3306 15.30202847 30270
Epoch: Apr 14, 2026 • Age: 13 hours

Current Status

Altitude 475.5 km
Velocity 7.63 km/s
Sub-Earth Point 5.49°N, 89.74°E
Launch Date Sep 29, 2025
Age 0.5 years
Type internet

Technical Details

Classification Payload
Mass 575.00 kg
Dry Mass 530.00 kg
Total Mass 575.00 kg
Length 0.30 m
Diameter 4.10 m
Span 29.00 m
Shape Box + pan
Manufacturer SPXS
Bus Type Starlink V2MO
Phase Status In Orbit
Owner/State SPXS/US

Most Searched